Temp
8 10 10 10 9 8 8 8 8 8 8 7 6 5 5 5 5 4 4 4 3 3 2 1 1 1 1
6 8 9 10 9 8 7 7 7 7 7 6 6 6 5 5 4 4 4 3 3 3 3 3 2 1 0
6 7 7 9 8 7 7 7 7 6 6 6 6 6 5 5 4 4 3 3 3 3 3 2 2 2 0
8 6 7 7 8 7 6 7 7 6 5 5 5 5 4 4 4 4 3 3 3 2 2 2 1 1 1
6 6 5 4 5 5 6 6 6 6 5 5 4 4 3 2 3 4 3 2 2 2 1 1 1 1 1
5 5 5 5 5 5 5 4 3 5 5 4 4 3 3 2 3 2 2 2 2 1 1 0 -0 0 1
7 6 5 5 5 4 5 5 5 5 4 3 3 3 3 2 2 2 1 1 1 1 0 -0 -1 -0 0
11 10 9 8 8 5 4 4 3 4 3 2 3 3 2 2 2 1 1 1 1 0 -0 -1 -1 -1 -0
10 9 10 10 7 4 3 2 2 2 3 3 2 2 2 2 2 1 1 1 -0 0 -1 -1 -2 -1 -1
7 8 8 8 8 8 7 2 2 1 3 2 2 2 1 1 2 1 1 0 -1 -2 -2 -2 -2 -1 -1
7 7 6 6 6 5 6 6 3 5 4 3 2 2 2 -0 -0 0 0 -0 -1 -1 -2 -2 -2 -2 -2
6 5 6 5 6 6 5 4 5 6 6 5 4 4 2 -1 -1 -1 -0 -1 -1 -1 -2 -2 -2 -2 -2
4 6 6 6 6 4 3 3 3 3 5 5 4 4 4 4 1 -1 -1 -1 -1 -1 -2 -2 -2 -2 -2
6 5 5 4 4 4 2 2 2 2 3 4 3 3 3 3 4 1 -0 1 -1 -2 -2 -2 -2 -2 -3
6 4 3 3 3 2 2 1 2 1 0 0 1 2 2 3 2 2 -0 -0 -1 -2 -2 -2 -2 -3 -3
5 4 3 2 3 1 2 1 1 0 -0 -1 -0 -0 0 -1 1 0 -1 -1 -3 -3 -2 -3 -3 -3 -4
5 4 4 3 1 -0 -1 -0 -0 -0 -0 -1 -1 0 -1 -3 -3 -2 -1 -3 -3 -3 -3 -3 -3 -4 -4
Height
853 859 870 877 885 892 895 899 902 905 909 912 915 917 918 919 919 920 920 920 919 919 918 917 916 915 914
847 854 863 873 881 887 891 896 899 902 907 910 912 915 916 917 917 919 919 919 919 918 917 915 914 913 913
842 849 857 865 876 883 887 892 896 900 904 908 910 911 913 914 915 917 917 917 918 917 916 914 913 912 912
837 845 851 860 868 874 880 886 891 895 900 903 906 908 910 911 913 913 914 914 915 915 914 913 912 911 910
833 841 846 853 857 868 876 881 887 890 894 898 901 904 906 908 909 910 911 912 913 913 912 911 911 910 908
825 831 837 845 854 860 870 877 882 883 889 893 897 899 902 905 906 907 909 910 911 911 911 911 910 908 907
811 820 829 834 844 854 859 867 873 878 884 889 893 895 899 901 903 904 906 909 910 909 909 908 908 906 904
807 815 821 828 834 843 855 866 871 875 879 884 887 889 893 896 898 900 902 904 905 906 907 906 904 904 903
805 814 820 826 833 842 851 858 866 868 873 877 879 883 887 890 894 896 898 900 902 903 904 903 902 902 902
803 812 818 823 827 833 839 847 856 862 863 870 872 877 883 882 886 891 893 896 898 900 900 900 900 899 899
798 806 812 818 824 829 835 840 844 849 851 860 864 870 875 877 879 885 889 892 893 897 897 899 898 897 898
793 799 805 810 817 822 830 837 843 846 850 853 857 861 867 873 876 881 885 889 891 891 895 896 896 896 894
786 792 798 803 812 820 828 833 840 844 847 850 854 857 862 866 869 873 880 884 887 888 891 893 894 893 893
778 785 794 801 806 814 821 827 835 839 843 847 851 855 858 862 865 868 874 877 881 884 887 889 890 890 890
771 778 788 796 801 809 816 822 827 831 837 843 849 853 857 860 863 867 871 874 878 882 884 886 886 886 886
762 770 780 788 795 804 810 815 819 824 830 837 843 850 854 860 861 864 870 873 876 879 881 882 883 883 884
756 763 772 780 788 795 803 808 815 820 826 832 838 843 848 856 860 863 867 869 873 876 879 880 880 881 881
Wind_Speed
28 33 39 36 32 29 28 26 24 24 22 20 17 14 11 9 7 6 4 3 1 1 3 4 6 8 10
25 34 42 39 35 32 30 27 25 25 23 21 18 14 12 10 8 7 6 4 3 3 3 5 6 7 9
22 36 36 43 39 34 33 30 27 24 23 22 18 16 14 12 10 9 8 6 5 4 4 5 6 8 9
32 30 34 40 43 40 34 34 31 28 26 24 21 18 16 14 13 12 10 8 7 6 5 6 7 9 9
25 25 27 30 36 31 30 35 32 32 31 28 24 21 18 16 15 14 12 10 9 7 6 6 7 9 10
28 28 30 30 34 33 28 23 14 34 34 32 28 26 23 20 17 15 13 12 10 8 7 6 7 8 10
40 34 32 39 38 33 36 34 26 21 34 27 31 28 25 22 20 18 15 13 11 10 8 6 7 8 10
40 44 41 40 44 41 35 28 21 23 22 21 30 32 28 25 23 21 17 15 13 12 9 8 8 8 10
36 34 34 32 37 35 34 32 19 18 28 20 19 29 29 28 26 24 20 16 15 13 10 10 7 8 9
31 26 26 29 32 37 39 35 23 16 31 28 17 17 8 26 28 26 22 18 17 14 11 11 8 8 9
35 31 27 28 31 34 35 36 36 16 20 37 23 23 9 5 20 25 24 22 20 16 17 11 9 9 9
37 34 33 33 34 34 31 30 29 24 21 31 15 27 20 10 7 22 24 24 20 19 16 12 10 8 8
37 38 38 36 33 30 27 26 25 23 15 24 25 21 22 14 11 20 26 23 22 18 16 13 9 7 5
40 37 35 31 32 33 33 30 26 22 20 22 27 18 24 17 15 19 22 12 23 18 15 11 8 6 5
39 38 36 33 34 35 32 33 24 27 25 23 23 19 17 18 14 19 23 13 13 16 13 9 7 6 4
39 40 39 38 37 38 35 36 31 30 30 30 27 23 18 10 10 20 18 14 14 14 10 8 7 6 4
40 40 41 40 39 39 36 35 31 30 31 33 33 31 14 2 8 17 16 16 16 13 10 8 5 5 4
Wind_Direction
184 185 192 201 200 203 202 204 207 211 215 215 224 218 207 201 201 195 192 198 199 84 39 27 18 16 15
174 179 192 200 201 202 202 205 209 216 219 221 228 230 224 220 214 218 220 228 248 287 325 329 354 5 14
168 183 186 192 198 205 206 208 210 214 220 224 229 233 233 225 221 228 233 241 257 275 295 315 336 352 5
180 178 182 188 196 199 201 209 210 212 219 224 231 232 233 228 228 232 235 240 251 268 289 307 330 347 351
169 181 179 182 189 193 200 207 210 214 218 220 222 222 220 220 227 233 231 235 247 258 275 293 320 334 339
179 185 189 188 186 191 190 190 199 214 217 219 223 224 227 228 233 233 228 233 245 248 266 289 303 321 331
189 186 184 190 186 190 198 201 206 207 211 216 223 225 229 231 233 236 234 237 244 248 258 273 286 308 325
212 211 210 203 205 198 194 195 205 209 202 212 223 227 227 229 229 231 232 234 241 243 250 263 278 299 320
213 219 217 214 204 190 183 185 200 198 201 208 213 221 225 228 228 226 228 229 234 241 242 251 276 298 318
207 212 218 214 216 216 211 188 189 188 207 201 193 193 202 229 225 223 220 221 219 227 234 250 270 295 312
200 200 198 199 206 211 218 213 196 205 204 198 194 192 196 166 205 211 213 208 210 212 233 250 267 290 308
192 187 190 195 203 205 211 215 223 219 214 201 201 195 189 163 168 195 203 209 217 221 236 249 262 280 297
186 193 197 198 198 195 201 206 213 215 210 205 208 204 205 198 175 188 189 207 214 221 227 238 252 266 278
191 196 195 192 189 193 190 193 196 198 201 202 206 210 199 203 196 180 189 185 206 211 215 223 239 260 270
193 191 191 190 191 192 194 188 189 188 185 190 194 199 204 199 179 186 182 183 182 196 201 213 229 240 255
195 193 188 189 193 192 197 193 192 189 185 182 179 171 162 163 181 176 178 179 180 188 198 205 218 222 256
196 194 195 193 191 190 192 195 194 192 190 185 182 177 149 132 158 177 190 180 182 187 198 199 193 213 245